This is the latest recevied weather packets stored in our database for station/object SV9TNF-56. If no packets are shown the sender has not sent any weather packets the latest 10 day(s).
| Time | Temp. | Humidity | Pressure | Rain* | Wind** | Luminosity | Snow |
|---|---|---|---|---|---|---|---|
| 1788426250 | 25.56° C | 69% | 1010.2 hPa | 0 mm | 18.33 m/s, 256° | - | - |
| 1788425949 | 25.56° C | 68% | 1010.2 hPa | 0 mm | 24.59 m/s, 288° | - | - |
| 1788425649 | 25.56° C | 68% | 1010.2 hPa | 0 mm | 22.8 m/s, 275° | - | - |
| 1788425349 | 25.56° C | 67% | 1010.2 hPa | 0 mm | 28.61 m/s, 227° | - | - |
| 1788425049 | 25.56° C | 67% | 1010.2 hPa | 0 mm | 22.8 m/s, 318° | - | - |
| 1788424749 | 25.56° C | 69% | 1010.2 hPa | 0 mm | 17.88 m/s, 274° | - | - |
| 1788424449 | 25.56° C | 70% | 1010.2 hPa | 0 mm | 12.07 m/s, 210° | - | - |
| 1788424149 | 25.56° C | 71% | 1010.2 hPa | 0 mm | 13.86 m/s, 204° | - | - |
| 1788423849 | 25° C | 72% | 1010.2 hPa | 0 mm | 10.28 m/s, 258° | - | - |
| 1788423549 | 25° C | 73% | 1010.2 hPa | 0 mm | 9.83 m/s, 268° | - | - |
| 1788423249 | 25° C | 74% | 1010.5 hPa | 0 mm | 11.18 m/s, 71° | - | - |
| 1788422948 | 25° C | 72% | 1010.5 hPa | 0 mm | 24.14 m/s, 282° | - | - |
| 1788422648 | 25.56° C | 72% | 1010.2 hPa | 0 mm | 13.41 m/s, 269° | - | - |
| 1788422348 | 25.56° C | 72% | 1010.2 hPa | 0 mm | 20.56 m/s, 266° | - | - |
| 1788422048 | 25.56° C | 71% | 1009.8 hPa | 0 mm | 12.52 m/s, 48° | - | - |
| 1788421752 | 25.56° C | 70% | 1010.2 hPa | 0 mm | 26.82 m/s, 260° | - | - |
| 1788421448 | 25.56° C | 70% | 1010.2 hPa | 0 mm | 16.09 m/s, 294° | - | - |
| 1788421148 | 25.56° C | 71% | 1009.8 hPa | 0 mm | 31.29 m/s, 260° | - | - |
| 1788420848 | 25.56° C | 70% | 1009.8 hPa | 0 mm | 32.63 m/s, 270° | - | - |
| 1788420548 | 25.56° C | 70% | 1009.8 hPa | 0 mm | 21.9 m/s, 210° | - | - |
| 1788420248 | 25.56° C | 69% | 1009.8 hPa | 0 mm | 26.82 m/s, 187° | - | - |
| 1788419948 | 25.56° C | 68% | 1009.8 hPa | 0 mm | 22.35 m/s, 210° | - | - |
| 1788419647 | 25.56° C | 68% | 1009.8 hPa | 0 mm | 19.67 m/s, 204° | - | - |
| 1788419348 | 25.56° C | 68% | 1009.8 hPa | 0 mm | 12.07 m/s, 132° | - | - |
| 1788419047 | 25° C | 69% | 1009.8 hPa | 0 mm | 12.96 m/s, 246° | - | - |
* Rain latest hour (hover to see other rain measurements)
** Current wind speed in m/s (hover to see current wind gust speed)